Theta_e
304 305 307 309 315 320 326 333 337 337 330 328 328 326 321 318 320 319 318 317 319 317 318 333 334 334 338 337 334 332 331 332 334 339 344 330 323 327 328 331 335 334 336 338 339 337 335 335 333 333 334 335 335 336 338 339 337 338 338 338 338 337 337 336 337 336 335 335 333 332 332 330 329 329 330 331 333 335 337 338 337 337 336 335 335 335 334 332 331 330 326 323 322 322 321 318 316
305 306 309 313 320 322 330 339 340 340 335 329 324 321 317 315 315 315 317 316 316 315 318 330 331 331 333 332 332 332 328 325 323 327 331 321 322 328 328 332 334 334 335 338 340 337 335 336 335 334 334 334 333 333 335 338 338 338 338 338 338 337 337 336 336 335 335 334 331 329 330 330 329 330 331 331 333 335 337 337 337 337 336 335 334 335 332 328 329 328 323 320 321 321 322 321 318
309 311 313 317 322 324 336 343 338 341 340 330 323 316 313 313 313 313 316 315 315 314 319 328 329 327 330 332 331 332 326 320 317 318 322 318 319 322 325 331 333 334 334 337 339 337 336 336 336 335 334 334 333 331 332 337 338 338 338 339 339 338 337 336 336 335 334 334 332 329 329 330 331 331 331 332 334 336 337 337 337 337 337 335 334 333 330 327 327 325 322 321 321 321 322 322 320
314 316 317 323 330 334 345 341 334 337 332 327 325 315 311 312 312 313 314 314 314 314 317 325 329 324 325 329 326 325 320 317 316 314 316 315 314 316 322 328 331 333 335 337 335 336 337 336 336 334 335 334 333 331 332 336 338 339 339 339 339 338 338 337 336 335 333 333 331 328 328 329 330 330 331 333 334 334 334 336 336 336 336 335 333 331 328 327 327 325 323 322 322 321 322 323 322
317 319 318 324 335 336 336 327 323 326 319 320 322 314 311 311 312 313 314 315 314 314 315 323 331 323 320 320 319 319 315 315 316 313 312 313 314 316 321 326 329 333 337 336 332 336 337 336 336 334 334 334 331 329 330 334 336 338 338 338 338 337 337 337 336 335 334 332 330 327 327 328 328 328 330 333 335 334 331 333 335 335 335 333 331 329 327 327 327 326 324 323 322 322 322 323 323
319 319 318 324 327 325 324 318 315 315 312 314 315 312 311 311 311 313 314 315 314 314 313 318 326 322 317 314 313 312 310 312 312 311 311 312 315 319 321 323 327 331 335 333 332 337 335 335 336 333 333 333 329 327 327 327 331 332 333 336 337 338 337 336 336 336 335 333 332 329 327 326 326 325 327 333 335 334 331 331 333 334 334 332 329 327 327 327 327 326 324 323 322 321 322 323 323
319 318 324 329 322 318 318 314 314 313 311 310 311 311 311 310 310 313 314 315 315 314 312 313 318 323 321 316 314 310 308 309 308 309 309 311 316 320 321 322 326 329 331 332 334 337 335 335 336 333 333 332 331 330 327 322 325 325 325 328 331 335 336 337 336 336 336 335 333 330 326 323 324 323 326 333 333 332 331 331 332 333 333 331 328 327 328 328 327 326 324 322 322 322 322 323 323
320 321 325 327 321 319 315 312 313 313 311 308 309 310 310 309 310 313 314 314 315 313 311 311 315 323 323 319 318 312 307 306 306 307 308 311 317 320 321 322 324 326 329 331 332 334 336 335 335 334 332 334 335 334 330 324 324 323 323 324 326 328 330 334 336 336 335 335 334 330 327 323 321 322 325 332 333 330 329 332 332 332 331 329 327 328 329 329 327 327 325 323 324 325 324 323 323
320 319 323 323 319 318 314 313 312 310 310 308 307 309 309 308 309 312 314 313 313 312 310 310 314 320 320 319 319 312 307 306 304 306 308 313 317 320 321 320 320 321 326 329 329 331 336 336 335 336 334 335 336 335 331 325 323 323 325 327 328 327 326 328 331 335 335 335 333 328 329 327 322 322 324 328 333 331 328 331 332 331 330 329 328 329 330 329 328 329 328 326 326 326 325 325 323
319 316 321 322 317 315 313 314 313 309 308 308 307 307 308 307 308 311 313 313 311 312 309 310 313 316 318 319 317 311 307 304 304 306 309 314 316 318 319 318 318 318 323 326 326 328 332 333 334 337 337 335 335 334 331 326 323 323 327 328 329 328 327 326 327 331 333 334 331 327 330 330 326 326 327 325 330 333 329 330 332 331 330 330 330 330 329 328 329 330 329 327 327 327 326 325 324
327 323 322 321 319 316 313 312 311 309 307 307 307 307 307 306 308 309 311 312 310 311 308 310 312 313 316 317 315 309 305 304 303 304 307 312 315 316 316 317 318 318 320 321 322 324 328 330 333 335 336 336 335 335 334 331 327 326 329 328 328 328 328 328 327 328 328 331 331 329 331 331 330 330 331 328 328 332 330 330 331 331 330 332 332 330 327 327 328 329 328 326 327 328 326 324 322
327 322 320 318 317 314 311 312 310 309 307 307 307 307 307 305 307 308 310 309 309 311 308 309 310 312 316 314 313 307 304 304 302 302 305 310 314 315 315 316 318 318 320 319 318 320 325 329 332 333 333 335 335 335 335 333 330 329 330 329 328 326 327 329 329 328 326 327 329 331 332 331 332 332 332 331 330 330 330 330 330 331 331 333 333 330 327 327 328 327 327 328 329 329 327 324 321
324 319 317 312 311 312 311 311 309 310 309 307 307 306 307 306 306 307 308 308 307 310 309 308 307 312 315 311 311 306 303 303 301 303 304 307 311 314 315 315 317 318 319 319 317 318 322 327 329 330 331 333 334 336 334 330 330 331 331 329 328 325 326 328 329 330 328 326 329 331 332 331 332 332 332 332 332 331 330 330 330 331 332 334 331 328 328 328 328 327 327 329 330 329 327 323 321
325 323 318 312 311 312 312 312 310 313 310 307 307 306 307 306 305 305 307 309 306 308 308 307 306 311 313 308 309 305 303 302 301 302 303 305 308 313 315 314 316 316 317 317 318 318 319 322 325 327 329 331 333 335 334 330 331 333 332 329 327 326 326 328 328 330 329 328 330 331 332 332 333 333 332 332 332 332 332 330 330 332 333 333 330 328 329 328 326 326 326 327 329 328 325 322 321
322 322 319 317 315 311 311 311 309 312 309 306 306 306 307 305 305 306 306 308 307 305 306 306 305 310 310 307 308 305 302 301 300 302 302 303 305 310 312 312 313 315 317 316 317 318 318 320 322 324 325 328 331 333 334 333 333 333 332 330 328 328 328 328 328 329 330 329 330 331 331 332 332 333 333 333 333 333 333 332 332 333 334 332 330 330 329 326 323 322 322 323 327 326 322 321 323
314 316 318 317 313 310 309 308 309 311 309 306 306 306 307 305 305 305 304 306 306 304 305 306 306 307 307 306 306 303 301 299 299 301 302 301 302 306 308 310 311 313 315 315 316 316 316 318 320 321 322 325 328 331 334 335 335 334 332 331 329 329 329 328 328 328 329 329 329 330 331 331 332 333 333 334 334 334 334 334 333 334 334 332 332 331 327 324 322 319 318 320 325 324 320 323 324
310 313 314 313 310 310 309 308 310 310 307 308 306 306 307 305 305 304 303 304 305 304 304 305 305 305 306 305 304 301 299 298 298 300 300 299 299 300 302 304 307 310 312 313 313 312 314 318 318 319 320 323 326 329 333 334 334 334 333 332 330 330 330 329 328 328 329 329 328 328 330 331 332 332 333 334 335 335 335 335 334 334 333 333 333 330 325 324 323 321 319 320 323 322 322 324 324
315 315 311 310 310 309 307 307 308 307 306 307 306 306 307 306 305 304 304 305 304 304 304 304 304 304 304 304 302 299 298 297 297 297 297 296 297 298 298 298 299 302 307 309 310 309 311 315 316 317 319 320 323 327 329 331 333 334 333 332 331 330 330 330 328 328 328 328 327 326 328 331 332 333 333 333 334 334 335 334 333 333 333 333 331 327 326 326 325 323 322 322 323 323 324 325 324
313 314 310 310 309 307 305 306 306 305 306 306 306 306 306 305 304 304 305 305 305 305 305 304 304 303 303 303 300 298 298 296 295 295 295 295 296 297 297 297 296 297 301 304 306 308 309 311 314 315 317 316 319 324 325 328 331 333 333 332 331 331 331 330 329 328 328 328 325 324 327 331 333 333 333 333 333 333 333 333 332 333 333 332 328 327 327 326 327 324 323 324 324 324 325 325 325
309 311 312 309 308 307 305 306 306 305 305 306 307 306 305 304 304 305 305 306 306 306 305 304 304 304 304 302 299 297 297 296 294 294 294 294 294 295 297 297 296 295 298 300 301 306 308 309 310 312 314 313 314 319 322 325 328 331 332 332 331 331 331 330 330 328 327 327 325 323 327 332 333 333 334 333 333 333 332 333 331 332 333 330 327 327 328 327 327 325 324 324 324 325 326 325 325
307 310 313 307 307 309 305 306 307 306 306 306 307 307 305 303 304 306 306 307 308 306 305 304 305 305 305 302 297 296 295 295 294 293 293 293 293 294 295 296 296 295 296 299 299 303 306 307 307 309 312 311 312 317 319 322 326 329 331 332 332 331 331 330 330 327 326 327 325 326 330 333 334 333 333 333 333 333 333 333 330 330 332 329 327 328 328 328 328 325 324 324 323 325 325 325 324
307 307 309 307 308 308 305 307 308 306 307 307 307 307 305 303 304 305 306 307 306 305 305 305 304 304 303 300 297 295 294 294 293 292 292 292 292 293 294 295 295 295 295 298 299 300 304 306 306 307 310 310 311 315 317 319 322 327 331 331 332 332 331 331 329 327 327 327 327 330 332 333 334 333 333 333 333 333 333 333 331 330 331 329 327 328 328 328 329 326 325 324 323 324 324 324 324
306 305 306 307 309 308 306 307 307 307 306 306 306 304 305 305 304 304 306 305 305 305 303 302 302 301 300 297 295 294 293 293 292 292 291 291 292 292 293 294 295 295 294 298 300 299 302 305 305 306 308 310 311 314 316 319 320 324 330 331 331 332 332 332 329 328 330 330 330 332 333 333 333 333 333 333 333 332 332 333 332 330 331 331 328 329 328 328 329 327 325 325 324 324 323 323 322
306 306 305 306 307 307 307 307 307 308 306 304 305 305 306 306 305 305 305 305 305 304 301 300 300 299 298 296 294 293 293 292 292 292 291 291 292 292 293 294 294 295 294 296 300 300 300 304 304 305 306 309 311 313 315 319 319 321 327 329 330 331 332 332 331 330 333 333 333 333 333 333 333 333 333 333 332 332 332 332 332 331 332 332 330 330 330 329 329 328 327 326 325 324 323 321 321
306 307 305 305 306 306 307 307 308 308 306 306 308 307 306 307 305 305 304 305 306 302 300 300 299 298 297 295 293 293 292 292 292 291 291 291 292 292 293 293 293 294 294 295 300 300 300 301 303 304 305 307 309 311 314 318 318 320 324 327 329 330 331 332 332 332 332 332 333 332 332 332 332 333 333 333 332 332 332 331 331 331 331 331 330 330 330 329 329 329 328 327 325 323 322 322 322
306 306 305 305 304 305 305 305 307 308 307 307 307 306 307 307 304 305 305 305 305 302 301 299 298 299 298 296 293 292 292 292 292 291 291 291 292 292 293 293 293 294 294 295 298 300 300 300 301 303 304 305 307 308 311 316 319 320 322 324 327 329 330 331 331 332 331 331 331 331 331 331 331 332 331 332 332 331 330 330 330 330 330 330 330 330 330 329 329 329 328 327 325 324 323 322 322
306 306 305 305 305 305 306 306 306 307 307 306 306 305 307 306 304 307 307 305 304 304 303 300 299 300 298 295 293 292 292 291 292 291 291 291 291 292 293 293 293 294 294 295 297 299 299 300 300 302 303 304 305 306 307 311 316 319 320 320 325 328 328 330 330 330 330 329 330 330 329 330 330 331 331 331 331 330 330 329 329 329 330 330 330 329 329 329 327 327 328 327 325 324 323 323 322
305 306 306 305 307 308 308 308 306 305 305 305 305 305 307 305 305 310 309 304 304 305 303 300 299 299 297 296 293 292 292 292 292 291 291 291 291 292 293 293 293 294 294 295 297 298 298 299 299 300 302 302 303 304 306 308 311 315 317 317 323 327 327 328 328 328 328 327 328 328 329 329 330 330 330 330 330 330 329 329 329 329 329 330 330 329 329 329 326 325 326 326 325 324 324 323 323
305 307 308 305 308 310 308 307 306 305 304 305 304 305 309 307 308 312 308 304 305 305 302 300 299 299 298 296 293 292 292 292 292 292 291 291 292 292 293 293 293 294 294 295 297 297 298 298 298 299 300 301 301 302 304 307 309 310 313 314 318 323 325 327 327 326 325 324 326 327 327 328 328 328 328 329 328 328 328 328 329 328 329 329 329 329 329 328 327 326 325 325 325 324 323 323 324
305 307 308 308 311 310 307 307 307 305 305 306 303 305 312 311 311 310 306 304 304 304 302 300 300 300 299 297 294 293 291 292 292 291 291 291 291 292 292 292 293 294 294 295 296 297 297 297 298 298 298 300 300 300 302 305 308 309 310 310 313 318 322 324 325 324 322 321 323 324 324 324 324 324 325 326 326 326 327 327 328 328 328 329 329 328 328 328 327 327 326 325 324 323 323 324 324
306 307 310 311 312 310 308 308 307 305 306 307 304 307 312 309 308 308 305 305 304 303 302 300 301 301 300 298 296 294 292 292 292 291 291 291 290 291 291 292 293 294 294 294 295 296 297 297 297 297 297 299 299 299 299 302 305 307 309 309 309 313 318 320 321 321 319 318 319 319 320 320 321 320 323 325 324 325 326 326 327 327 327 328 328 327 327 327 326 326 326 325 324 324 324 324 324
309 309 313 313 310 309 309 308 306 305 305 306 305 309 312 308 307 306 304 305 305 303 302 301 302 301 301 299 296 296 293 292 292 291 291 290 290 290 291 292 292 293 294 294 295 295 297 297 297 297 297 297 297 297 298 300 303 306 307 307 309 312 315 316 316 318 317 315 316 316 317 318 319 320 322 324 324 324 324 324 325 325 325 327 327 325 326 326 325 326 325 324 324 324 324 324 323
310 308 312 314 310 308 307 306 305 304 304 304 304 308 310 308 308 306 303 305 306 304 303 302 303 302 302 300 297 296 295 293 292 291 291 290 289 290 291 291 292 293 293 293 294 295 296 296 296 296 296 296 296 297 297 299 302 304 304 305 307 310 313 312 312 313 314 313 313 314 315 317 318 320 321 322 322 322 322 322 322 322 322 323 325 325 325 325 324 324 323 323 322 322 322 322 322
311 309 311 312 308 306 307 305 304 303 303 304 305 307 308 307 306 305 304 305 305 305 304 303 302 302 302 301 298 297 296 295 293 291 291 290 289 289 290 291 292 292 293 293 293 294 295 295 296 296 296 295 296 296 297 298 299 301 302 304 306 309 311 311 311 312 312 312 312 312 314 316 317 319 320 320 320 320 320 320 320 321 321 321 322 322 322 322 321 321 321 320 320 320 321 320 320
311 310 311 311 307 306 305 304 304 303 303 305 306 306 306 305 304 304 303 303 305 305 305 304 302 303 303 303 301 298 297 296 293 291 291 290 290 289 289 290 291 292 293 293 293 293 294 294 295 295 295 295 295 295 295 297 298 299 301 302 303 305 306 308 310 312 311 310 310 312 313 314 316 318 318 317 318 318 318 318 318 318 318 319 319 320 319 318 318 318 319 318 317 317 317 318 318
308 307 308 309 308 306 303 302 303 303 305 307 307 306 305 305 305 305 304 303 304 304 305 304 303 305 304 303 301 298 299 296 292 292 291 290 290 289 289 290 290 291 292 293 293 293 294 294 294 295 295 294 294 294 294 295 296 297 299 301 300 299 301 303 305 307 307 306 306 309 310 311 313 314 314 314 315 315 315 315 315 315 315 316 317 317 316 315 315 314 315 315 314 314 315 316 316
304 305 307 308 306 304 301 301 302 303 306 309 307 305 305 306 305 305 304 303 305 306 305 304 302 303 302 299 297 296 296 294 292 292 291 291 290 289 289 289 290 290 290 291 292 293 293 294 294 294 294 294 293 293 293 293 294 294 295 296 296 296 297 300 300 302 304 303 303 305 305 307 309 310 311 312 312 312 312 312 312 311 311 312 312 312 311 311 311 310 310 310 310 311 311 312 313
304 306 309 310 304 301 300 301 303 302 306 312 309 305 307 307 305 304 303 304 306 307 306 304 302 301 299 297 297 296 296 293 291 292 291 291 291 289 288 289 289 290 289 290 291 292 293 294 294 294 294 294 293 293 292 291 292 292 292 292 293 293 295 297 297 298 300 300 300 301 301 303 305 307 308 308 308 308 308 308 308 307 306 307 306 306 306 306 305 305 305 305 306 307 306 308 310
307 308 310 308 302 302 304 303 303 301 305 312 308 305 309 308 304 304 304 305 306 306 306 304 302 302 299 297 298 298 298 297 294 292 291 291 291 290 289 289 289 290 289 290 290 291 292 293 294 294 293 293 293 293 291 291 291 291 291 291 291 291 292 293 293 294 295 296 296 297 298 300 302 303 303 303 304 303 303 303 303 302 302 302 302 302 301 300 299 299 300 300 300 301 301 304 307
307 309 308 305 302 303 305 304 303 301 304 308 305 307 312 310 307 306 305 305 305 304 304 304 301 300 299 298 298 297 297 298 296 294 291 291 291 290 289 289 289 290 289 289 290 290 291 292 293 293 292 292 292 292 291 291 291 290 290 290 290 290 290 290 291 291 292 292 293 293 294 296 297 298 298 298 299 298 299 299 299 299 298 298 299 298 298 297 296 296 296 297 297 296 295 297 300
306 308 305 303 303 302 303 303 302 303 305 303 303 311 317 312 310 309 306 306 306 304 303 303 302 301 300 299 299 299 298 297 297 296 292 290 291 290 290 289 289 289 289 289 289 290 290 292 293 293 292 291 291 292 292 291 291 290 291 291 290 290 290 290 290 289 289 290 290 291 291 292 293 294 294 294 295 295 296 295 295 295 294 295 295 295 294 294 294 294 293 294 294 292 291 291 294
307 308 304 302 303 303 302 303 305 310 312 304 302 312 320 316 311 309 308 308 308 306 305 307 305 303 301 299 299 301 301 297 295 294 292 291 290 290 290 290 289 289 289 289 289 289 290 291 292 293 292 291 290 291 291 292 291 291 292 291 291 290 289 289 289 288 288 289 289 289 290 291 291 292 292 292 293 293 293 293 293 293 293 293 292 292 292 292 292 292 292 293 292 291 291 290 290
306 305 304 303 303 302 300 303 308 312 311 304 303 309 314 315 313 309 308 308 309 308 309 309 307 305 303 300 299 301 302 298 295 293 291 291 291 290 290 290 289 289 288 289 289 289 290 290 291 292 292 291 290 290 290 291 291 291 291 290 289 289 288 288 288 288 288 288 289 289 289 289 290 290 290 291 291 291 291 291 291 292 292 291 291 291 291 291 291 291 291 292 291 291 292 290 288
305 304 303 303 300 299 300 304 308 307 307 307 307 306 305 311 315 310 306 307 309 309 308 309 308 307 305 303 300 300 302 301 298 295 291 290 291 290 291 290 290 289 288 288 289 288 289 289 291 291 292 291 291 290 290 290 290 289 289 289 288 288 288 288 288 288 288 288 288 288 288 288 288 289 289 289 289 289 289 290 290 290 290 289 289 289 289 289 289 289 289 290 289 289 290 289 287
305 302 300 299 299 299 301 306 308 305 308 313 311 305 305 313 315 309 306 308 309 307 306 308 310 309 307 306 303 301 300 297 294 293 291 290 291 291 291 291 290 290 289 288 288 288 288 288 289 290 291 291 291 290 289 289 289 289 288 288 288 288 287 287 287 287 287 288 288 288 287 287 287 288 288 288 288 288 288 288 288 288 288 288 288 288 287 288 288 288 288 288 288 288 287 287 286
303 301 300 301 302 302 304 306 307 307 312 313 309 304 306 313 315 308 306 307 306 305 305 308 310 310 308 306 304 301 299 296 291 291 292 291 291 291 291 291 291 291 290 288 288 288 288 288 288 289 290 291 291 290 290 289 289 288 288 288 288 287 287 287 287 287 287 287 287 287 287 287 287 287 287 287 287 287 287 287 287 287 287 287 287 287 287 287 287 287 287 287 287 287 287 286 286
302 302 304 305 304 305 306 304 303 310 316 311 307 303 302 310 315 308 305 304 303 303 305 308 311 312 310 307 304 299 298 297 292 289 291 292 291 291 291 291 291 292 291 289 288 288 288 287 288 288 289 290 290 290 290 289 289 288 288 288 288 287 287 287 287 287 287 287 287 287 287 287 287 287 287 287 287 287 287 287 287 287 287 287 287 287 287 287 287 287 287 287 287 286 286 286 285
301 304 305 308 310 309 310 310 308 314 315 310 307 303 300 307 313 307 303 302 302 302 303 305 310 312 311 309 305 300 296 297 295 290 290 291 291 291 291 292 291 292 292 290 289 288 288 287 287 288 288 289 289 290 290 289 289 289 288 288 288 288 287 287 287 287 287 287 287 286 286 286 286 287 287 287 287 287 287 287 287 287 287 287 287 287 287 287 287 287 286 286 286 286 286 286 285
302 304 306 313 317 313 314 316 314 314 312 307 305 302 302 307 309 305 304 303 303 302 300 303 308 310 311 311 308 302 297 297 297 293 290 290 291 292 292 292 292 292 292 292 290 289 288 288 287 287 287 288 288 289 289 289 289 289 289 288 288 288 287 287 287 287 286 286 286 286 286 286 286 286 286 286 286 287 287 287 287 287 287 287 287 287 287 287 287 287 287 286 286 286 286 286 285
303 303 306 313 315 313 316 315 311 313 313 306 301 301 307 309 306 305 304 303 303 302 300 302 305 307 309 310 307 304 300 298 297 293 290 290 292 292 293 292 292 292 292 292 291 290 289 288 287 287 287 287 287 288 288 289 289 289 289 289 288 288 288 287 287 286 286 286 286 286 286 286 287 286 286 286 286 286 287 287 287 287 287 287 287 287 287 287 287 287 287 287 286 286 286 286 286
302 302 304 310 309 310 314 311 310 313 311 306 303 304 308 308 306 304 301 300 302 304 303 303 303 304 306 306 304 304 303 301 298 293 290 291 293 293 293 293 293 293 293 292 292 291 290 289 288 287 287 287 287 287 288 288 288 288 289 289 288 288 288 287 287 286 286 286 286 286 287 286 287 286 286 286 286 286 287 286 287 287 287 287 287 287 287 287 287 287 287 287 287 286 286 286 286
303 302 305 307 305 307 309 307 307 306 304 308 310 308 307 306 304 303 301 299 301 304 305 303 303 304 305 305 304 305 305 303 302 297 292 291 294 294 294 294 294 293 293 293 292 292 291 290 289 288 287 287 287 287 287 287 288 288 288 288 288 288 288 288 287 287 286 286 286 286 286 286 286 286 286 286 286 286 286 287 287 287 287 287 287 287 287 287 287 287 287 287 287 286 286 286 286
306 305 304 300 299 304 307 305 304 302 305 311 309 307 307 306 303 302 302 303 303 304 306 305 305 305 305 304 306 307 306 305 303 298 294 293 294 295 294 295 294 294 294 293 293 293 292 291 290 289 288 287 287 287 287 287 287 287 287 287 287 287 287 287 287 287 286 286 286 286 286 286 286 286 286 286 286 286 286 286 286 286 286 287 287 287 287 287 287 287 287 287 286 286 286 286 285
305 307 300 296 300 304 304 305 306 307 311 311 307 307 307 307 309 307 304 304 303 304 306 307 307 307 305 305 306 306 306 306 303 297 294 294 295 295 295 296 295 295 295 294 294 293 293 292 291 290 289 289 288 287 287 287 287 287 287 287 287 287 287 287 287 287 286 286 286 286 286 286 286 286 286 286 286 286 286 286 286 286 286 286 286 286 286 287 287 287 287 286 286 286 286 286 286
299 300 298 299 306 307 305 306 308 309 310 308 307 307 306 307 311 309 304 302 303 305 306 306 305 304 305 305 306 307 308 308 308 302 296 295 297 297 296 296 296 296 296 295 295 294 293 293 292 291 291 290 289 288 287 287 287 287 287 287 287 287 287 287 287 286 286 286 286 286 286 286 286 286 286 286 286 286 286 286 286 286 286 286 286 286 286 286 287 287 287 286 286 286 286 286 286
302 302 301 303 305 304 303 305 306 308 309 308 306 307 309 311 310 306 302 301 303 304 302 302 303 303 303 302 302 307 309 307 309 307 298 296 298 298 297 298 297 297 297 296 295 294 294 293 293 292 292 291 290 289 288 288 288 287 287 286 286 286 286 286 286 286 286 286 286 286 286 286 286 286 286 286 286 286 286 286 286 286 286 286 286 286 286 286 286 286 286 286 286 286 286 286 286
305 307 304 304 304 303 303 303 303 305 307 306 305 307 309 309 307 305 302 302 304 304 300 300 303 302 301 300 300 304 307 306 308 305 297 296 298 297 297 298 297 297 298 297 296 295 294 294 293 293 292 292 291 290 289 289 289 288 287 287 287 286 286 286 286 286 286 286 286 286 286 286 286 285 285 285 286 286 286 286 286 286 286 286 286 286 286 286 286 286 286 286 286 286 286 286 286
301 303 302 303 304 304 306 307 303 302 304 304 303 305 306 304 304 302 300 301 303 303 300 300 302 300 300 300 300 302 303 305 306 299 295 296 297 297 297 297 297 297 297 297 297 296 295 294 294 293 293 292 292 292 291 290 290 289 289 288 288 287 287 286 286 286 286 286 286 286 286 286 286 286 285 285 285 285 285 286 286 286 286 286 286 286 286 286 286 286 286 286 286 286 286 286 286
Wind_Speed
6 6 6 6 7 7 4 4 2 2 4 3 3 2 4 6 5 5 10 11 4 6 7 5 9 7 7 9 12 13 12 9 5 5 4 10 25 16 26 31 24 22 9 6 13 12 11 11 10 10 9 8 7 7 8 11 12 12 12 13 13 13 14 14 14 13 12 11 11 10 10 10 10 10 10 9 9 10 9 9 10 11 13 14 14 14 13 11 11 11 12 14 14 15 15 15 15
6 4 4 3 5 4 1 3 4 2 5 4 3 2 5 7 7 8 8 9 5 8 6 4 9 10 8 11 9 10 11 10 7 6 1 22 29 19 33 29 24 25 11 7 13 12 12 11 10 9 8 8 6 6 6 8 11 13 13 12 12 12 15 16 16 14 12 11 11 11 9 9 9 9 9 9 9 10 9 9 10 11 13 14 14 14 12 11 10 10 11 12 13 14 14 14 14
7 4 3 1 2 4 1 3 4 2 5 3 1 2 5 7 8 9 5 5 7 9 5 3 7 8 5 7 8 5 6 6 11 9 5 25 25 25 38 27 26 26 15 6 15 13 12 11 10 9 8 8 6 5 5 6 8 12 12 11 11 12 14 15 15 14 13 12 11 11 10 9 8 9 9 9 9 9 10 9 9 10 12 13 13 13 11 10 10 9 9 10 12 12 13 13 13
7 5 5 2 1 4 3 4 3 3 4 2 1 4 7 7 8 8 5 4 7 10 7 4 5 6 6 9 7 4 5 5 11 14 7 18 20 29 36 27 29 26 17 6 17 13 13 11 11 9 9 9 7 6 5 6 7 8 8 9 10 12 14 13 14 14 14 13 11 11 10 9 8 8 8 9 9 9 9 9 9 11 13 13 12 12 11 10 9 8 8 9 10 11 11 11 11
5 5 6 5 2 2 3 4 3 4 2 1 1 4 6 6 8 8 7 4 8 13 10 6 3 3 7 7 5 2 6 8 11 18 11 21 27 30 31 28 29 25 18 5 17 13 14 12 12 11 10 9 8 8 7 7 6 7 6 6 8 11 15 13 12 11 12 12 11 11 10 10 9 9 9 9 9 8 8 8 9 11 13 12 12 12 11 9 8 7 7 9 10 10 10 10 10
3 4 7 7 4 3 4 4 4 5 2 1 2 3 6 6 7 8 8 3 6 12 11 8 3 3 6 4 6 5 4 6 10 18 16 25 32 28 28 28 26 23 20 2 14 12 13 13 13 12 11 10 10 9 8 8 6 6 6 7 7 9 11 11 11 10 9 10 10 10 10 10 10 10 10 9 9 10 9 8 8 10 12 12 12 11 10 9 8 7 7 8 9 10 9 9 9
4 3 4 6 5 4 5 5 4 4 3 3 3 3 6 7 7 7 9 7 6 11 11 9 2 3 4 2 4 7 10 11 9 16 19 26 30 26 28 26 24 22 20 12 5 13 14 14 14 12 11 10 10 10 9 8 7 7 6 7 7 7 7 9 11 10 9 9 8 9 9 9 11 11 11 10 9 10 9 8 8 9 11 11 11 11 10 8 7 7 7 8 9 9 9 9 8
5 3 2 5 4 4 5 5 5 2 3 4 3 4 6 7 7 7 9 8 5 8 11 11 7 2 3 2 2 3 10 18 15 19 24 28 29 25 27 25 25 23 19 19 8 5 14 16 14 13 10 10 10 9 10 9 9 8 8 8 8 8 8 9 11 11 10 9 8 8 8 9 10 12 12 11 9 9 9 9 9 10 10 11 12 12 10 8 7 6 6 7 8 8 8 7 7
5 4 2 5 5 4 4 4 4 3 3 4 4 6 7 7 7 8 8 8 5 5 11 12 7 4 1 3 3 3 8 23 24 26 29 32 30 25 26 25 26 25 19 17 14 7 8 15 12 11 9 10 10 10 10 9 9 9 9 9 9 10 10 11 11 11 10 9 9 9 9 8 9 11 12 12 10 9 9 10 10 10 10 11 12 11 10 8 7 6 6 6 6 6 6 6 6
4 5 3 4 4 4 5 3 3 3 4 4 4 6 7 7 6 9 7 8 6 4 9 9 4 6 2 3 2 1 11 26 31 33 34 33 30 26 25 24 25 24 20 16 16 13 5 8 8 11 9 10 11 11 12 11 10 9 10 9 9 10 11 12 12 12 11 10 10 10 10 9 9 11 11 11 11 10 10 10 10 11 11 12 12 11 10 8 7 6 5 5 5 5 5 5 5
3 5 4 5 5 5 4 3 3 2 3 4 5 5 5 8 4 7 7 5 5 4 9 9 5 5 3 2 1 3 17 28 33 33 33 31 29 26 25 25 24 23 21 18 18 14 6 3 5 9 9 11 12 13 14 13 12 10 11 10 10 11 12 12 12 13 13 12 11 11 11 10 10 10 10 11 11 11 10 11 11 11 11 12 12 11 9 8 7 6 5 5 5 4 3 4 4
3 4 5 6 4 3 3 3 3 1 3 4 5 7 4 6 5 5 7 6 6 4 8 9 4 3 2 2 2 7 22 29 31 31 29 30 29 27 26 25 23 23 22 20 21 17 10 6 5 3 5 9 12 14 14 15 14 11 11 9 9 11 12 13 12 13 14 13 13 12 12 11 11 10 10 10 11 11 11 11 11 11 12 13 12 10 9 8 7 6 5 4 4 3 2 3 3
4 2 6 5 2 2 4 3 1 2 3 4 3 6 5 5 5 4 3 6 9 5 6 9 6 2 2 2 3 8 19 27 31 30 29 28 28 28 27 25 23 23 21 22 23 20 14 8 4 1 1 3 9 12 12 14 15 11 11 9 10 11 11 12 13 13 13 13 13 13 13 12 12 11 11 11 11 11 11 11 10 11 13 13 12 10 9 7 6 5 6 5 4 3 2 2 3
3 3 5 4 2 2 3 2 1 2 2 4 3 5 5 4 4 4 3 6 10 6 3 9 7 1 3 4 3 6 15 28 32 31 29 27 27 28 28 28 26 24 22 23 22 21 18 12 8 5 1 0 5 9 12 16 15 13 12 10 10 11 10 12 12 13 12 12 12 12 12 12 12 11 12 11 11 12 12 12 11 13 13 13 12 10 9 7 6 6 6 5 5 4 2 2 3
4 3 5 4 2 2 2 1 1 3 1 3 4 5 4 3 4 4 6 5 5 6 4 9 10 2 3 5 4 6 16 28 31 31 30 28 27 28 29 31 30 27 24 26 24 21 21 16 12 9 6 3 2 6 11 17 17 15 13 11 11 11 10 11 12 12 12 11 11 11 11 12 11 11 12 12 13 13 13 14 14 15 14 13 12 11 9 6 5 5 5 5 6 4 2 3 4
4 4 5 4 2 2 1 1 1 3 0 3 5 5 3 3 5 4 5 4 2 6 4 6 8 3 0 3 5 10 17 25 30 32 32 31 32 31 32 33 34 31 28 28 27 25 23 19 15 13 11 8 1 3 9 16 17 16 14 12 11 11 11 10 11 11 12 12 11 11 10 11 11 11 12 12 13 14 14 16 17 17 16 14 13 11 8 6 5 4 5 6 6 5 4 5 4
4 5 6 5 2 2 1 1 1 1 2 5 6 5 5 3 6 2 4 8 2 3 4 3 4 3 1 3 5 12 17 24 29 33 35 35 34 33 35 36 36 36 33 30 28 27 24 21 19 16 14 11 5 1 7 13 16 17 16 14 13 12 12 11 11 10 12 12 11 10 9 10 11 12 12 12 13 13 14 15 17 19 16 14 13 10 8 6 5 5 6 6 6 6 6 6 5
5 4 5 4 2 1 2 2 2 1 2 5 5 4 5 3 5 2 3 8 6 2 2 3 2 1 3 3 7 14 19 26 30 32 34 33 31 31 31 33 35 37 36 32 29 29 26 22 21 19 16 13 9 3 3 7 13 17 16 16 15 13 13 12 11 10 11 12 12 11 9 9 10 11 11 12 13 12 11 12 16 19 16 15 13 9 8 6 5 6 7 7 7 7 6 5 4
5 4 5 3 3 1 3 2 1 1 1 4 5 3 5 4 4 3 3 6 9 8 6 5 3 3 5 6 10 17 22 26 29 29 29 28 27 26 26 28 31 34 35 34 30 28 26 23 20 19 18 17 13 7 4 1 7 14 17 17 16 15 14 13 12 10 10 12 13 12 10 10 10 11 11 11 12 11 10 11 17 18 15 15 12 10 8 6 6 7 8 8 7 6 5 5 4
4 4 5 1 5 2 1 1 1 1 1 2 5 3 4 4 3 3 2 3 7 6 6 6 7 8 7 8 11 17 22 25 26 26 26 25 24 23 23 24 27 30 32 31 29 27 25 23 22 19 18 20 18 11 7 3 2 9 15 18 18 16 15 13 12 11 10 11 13 12 10 10 10 10 9 9 10 12 12 14 20 19 15 15 13 11 9 8 8 9 9 7 6 6 5 4 4
4 4 6 4 4 4 1 0 2 2 2 2 4 5 4 2 3 3 3 3 5 3 5 4 6 10 8 7 10 16 21 23 24 25 24 24 24 23 22 22 22 26 30 29 27 26 25 23 23 21 18 19 19 16 12 6 2 4 11 15 18 17 16 13 12 12 11 12 13 11 10 10 10 10 8 8 11 14 15 17 22 20 17 16 15 13 11 10 10 10 9 7 5 5 4 4 4
5 4 5 5 4 4 2 1 2 1 4 4 3 5 2 1 3 2 5 4 2 4 4 6 7 7 5 6 10 15 18 19 21 23 23 23 23 23 24 23 23 26 30 31 28 25 25 23 23 23 19 19 18 15 15 11 5 0 8 12 15 18 17 13 11 12 12 12 12 11 11 11 11 10 9 9 11 14 17 20 23 21 18 18 17 15 13 12 11 11 10 7 5 5 4 4 4
5 4 3 3 4 4 2 1 2 3 5 3 1 2 1 3 1 1 5 3 4 5 6 7 6 3 4 7 10 12 14 16 18 20 21 22 22 22 23 24 24 25 29 32 29 25 25 23 23 23 20 20 17 13 13 12 9 3 6 10 13 17 18 14 11 13 13 12 12 12 12 13 12 10 10 10 11 14 17 21 22 21 19 19 18 16 15 13 11 12 11 9 7 5 5 4 3
7 4 0 2 3 3 4 3 3 5 4 2 1 2 1 2 0 1 2 4 6 6 7 6 3 6 9 10 10 10 11 14 16 19 20 20 21 21 21 22 22 23 27 32 30 25 25 23 23 23 21 19 16 13 11 9 9 5 3 7 10 12 14 15 13 14 15 14 14 14 13 14 13 10 9 9 9 12 14 18 22 21 21 20 19 17 16 13 12 14 12 10 9 6 6 4 3
7 4 2 1 1 1 2 2 1 3 3 1 3 3 3 4 1 1 3 6 6 6 7 7 7 9 10 8 8 10 12 15 16 19 21 21 20 21 22 22 22 22 27 31 29 24 24 23 22 22 21 18 15 12 10 7 8 6 1 4 8 9 11 14 14 15 16 15 15 14 13 13 12 11 9 8 7 7 6 9 14 14 14 16 15 13 13 12 12 14 13 12 10 8 7 6 5
2 4 2 2 0 1 0 1 2 3 2 2 4 2 6 5 1 1 5 6 6 4 6 6 6 7 6 5 7 9 11 14 16 18 20 21 21 22 23 23 22 22 25 29 28 23 22 22 22 21 19 18 14 11 10 7 6 6 7 9 11 10 11 13 14 15 14 13 13 12 13 12 12 12 10 9 8 7 5 4 4 4 5 7 8 5 8 12 11 12 13 13 12 10 8 7 6
2 4 3 4 2 1 2 2 3 3 3 1 3 4 5 2 0 2 6 6 4 4 6 4 5 5 4 4 6 9 11 13 15 17 20 22 22 23 23 23 22 21 25 29 26 21 20 20 21 20 18 17 14 11 10 8 7 9 12 14 15 15 14 14 14 14 12 11 11 12 13 13 13 13 11 11 10 9 7 6 4 4 4 5 5 3 6 9 7 9 13 14 13 11 9 8 8
4 5 4 3 4 4 5 4 5 3 2 1 2 2 4 2 1 4 6 4 0 3 4 4 5 4 4 4 5 9 10 12 15 17 18 20 21 22 22 21 21 21 24 28 25 20 19 19 19 19 17 16 15 13 10 11 11 11 14 16 17 17 16 16 16 15 13 12 13 15 15 15 14 13 11 10 9 8 7 7 6 6 6 5 6 5 6 7 5 5 9 12 12 11 10 8 7
3 5 4 3 6 5 5 4 5 4 2 5 3 3 5 2 4 6 5 1 3 5 3 4 5 3 4 3 5 8 10 13 16 16 17 19 20 20 20 19 19 20 22 25 23 19 18 18 18 18 17 15 14 14 12 12 13 13 13 16 18 18 18 17 16 15 14 13 13 14 15 14 13 10 8 7 6 6 6 7 7 6 6 5 5 6 7 7 7 6 7 10 11 11 10 8 7
1 2 4 2 6 4 4 3 5 4 2 6 4 2 5 5 7 8 4 2 3 4 3 3 4 4 4 4 4 5 9 13 15 16 17 19 20 19 20 18 17 18 20 24 23 19 18 17 16 17 17 16 15 14 14 14 14 14 13 14 17 18 18 17 17 15 14 13 12 11 12 11 10 6 4 4 5 6 6 6 6 5 5 5 5 7 8 8 9 9 8 9 11 11 10 8 7
1 3 2 3 4 4 6 3 5 5 3 6 6 2 5 6 8 8 4 4 4 2 2 2 3 4 4 4 4 4 8 12 13 15 16 18 20 20 20 19 18 17 18 22 24 21 17 16 16 16 15 16 17 16 14 16 17 17 15 14 16 17 18 18 16 15 13 12 11 10 9 8 6 3 2 4 5 6 7 7 6 5 5 5 6 6 7 7 7 7 7 8 10 10 9 8 6
3 3 3 3 3 4 7 2 4 6 5 5 6 1 4 6 8 6 3 4 5 2 2 2 3 4 4 4 4 4 6 11 12 13 15 18 20 20 19 19 19 18 18 20 23 21 18 16 16 16 16 15 16 16 15 15 17 18 18 16 16 16 16 17 17 14 12 12 11 11 9 7 6 3 4 6 5 5 6 7 7 6 5 6 6 4 4 4 3 4 5 6 7 7 7 6 4
4 4 1 3 3 5 6 1 4 6 5 5 4 1 3 5 6 6 2 4 5 3 3 3 3 4 4 3 4 3 5 8 11 13 14 17 19 19 19 19 19 18 18 19 21 21 19 18 16 16 16 15 14 16 17 16 17 18 18 19 18 17 16 17 18 15 13 13 12 13 11 8 6 4 5 5 4 5 5 5 6 5 4 5 5 4 2 2 2 3 3 3 3 4 4 3 2
4 4 1 2 3 4 5 3 5 9 5 5 5 0 4 7 7 8 4 4 5 4 3 4 3 4 4 3 4 4 4 4 7 11 13 16 19 19 19 18 18 17 16 17 19 19 18 19 18 16 16 16 14 15 17 18 18 19 18 19 20 20 19 18 18 17 15 14 14 15 12 10 8 6 6 6 4 4 4 4 4 3 2 2 3 3 3 3 2 2 2 2 1 0 1 1 3
2 3 3 3 4 2 4 5 5 11 8 4 5 4 7 10 8 6 4 4 4 3 3 3 2 4 4 3 4 4 4 4 6 9 11 15 18 19 18 18 17 17 16 17 18 19 18 18 18 18 17 17 16 14 15 16 18 20 20 21 22 23 23 21 19 18 17 17 16 15 13 13 13 10 8 7 6 5 5 5 4 4 3 2 3 4 4 3 3 2 1 1 2 3 3 3 4
4 3 1 3 6 3 5 5 4 10 9 3 5 5 8 11 10 7 4 3 4 1 1 1 2 4 3 3 4 4 4 4 6 9 10 14 17 18 18 18 17 17 17 17 17 19 18 18 19 20 18 18 17 15 15 14 14 18 21 23 25 25 25 24 23 21 20 20 19 17 16 16 15 13 12 10 9 8 7 7 7 7 6 5 5 6 6 5 5 5 4 3 3 3 3 2 4
4 2 1 3 4 5 6 4 3 9 7 3 4 7 9 9 8 8 3 3 4 2 0 2 2 3 3 2 4 4 4 4 6 9 9 13 15 16 17 17 17 17 18 17 17 18 16 17 20 19 17 17 17 16 15 13 13 16 19 22 24 25 25 25 25 24 22 21 21 20 19 18 17 16 15 13 11 10 10 10 10 10 9 9 10 11 11 10 10 10 9 8 7 5 6 6 12
2 2 1 3 2 6 8 3 3 8 4 4 6 9 10 8 7 7 1 4 1 2 2 1 1 2 2 3 5 5 4 4 6 8 9 11 12 14 15 16 16 17 18 17 16 16 15 17 19 18 17 17 16 15 15 14 13 14 15 18 21 23 24 25 26 25 23 22 21 21 20 20 19 18 16 14 14 13 13 13 13 14 13 13 14 15 14 13 13 13 12 13 13 13 13 12 13
2 2 1 3 2 5 7 2 6 8 2 3 8 8 8 8 6 5 3 2 2 3 2 3 2 1 3 4 5 4 4 5 5 6 7 8 9 11 12 13 14 15 17 17 16 16 16 17 17 17 17 15 13 13 14 15 15 15 15 16 19 21 22 24 25 24 23 23 22 22 22 21 20 20 19 17 17 17 17 17 17 17 16 16 17 17 16 15 15 14 14 16 17 18 19 16 11
2 2 2 3 3 3 4 2 9 9 1 2 8 5 5 6 6 5 4 2 3 3 3 2 1 2 4 5 5 4 4 5 5 6 6 5 6 9 11 12 12 14 16 18 17 17 17 17 16 15 15 14 11 9 10 13 15 17 18 19 20 21 21 21 23 23 23 23 23 22 22 22 21 21 20 20 20 20 19 19 19 18 18 18 18 19 18 18 17 16 16 16 17 20 21 21 17
3 0 2 2 3 1 4 5 9 7 1 2 6 3 3 5 6 6 4 4 4 4 5 5 4 3 4 5 5 4 4 5 5 6 6 5 5 7 8 10 11 12 14 16 16 17 16 15 15 14 14 13 11 8 7 8 11 15 17 18 19 20 21 21 22 22 22 23 24 23 22 22 21 21 21 20 20 20 20 20 20 20 20 20 20 21 21 20 19 18 18 18 19 20 20 23 24
5 2 2 2 3 3 4 7 7 4 3 5 7 5 4 5 5 6 5 5 6 4 5 6 5 5 4 5 6 5 4 5 5 6 7 6 5 6 7 8 9 10 11 13 13 13 13 13 13 13 13 13 13 11 9 7 10 12 14 17 18 20 22 21 20 20 21 23 23 22 21 21 21 21 21 20 20 20 20 20 20 20 21 21 22 22 22 22 21 20 20 20 21 20 21 24 24
5 2 2 2 2 3 4 5 3 3 1 4 5 4 3 5 5 6 5 6 7 6 6 6 5 5 4 5 6 5 5 5 6 7 7 6 6 7 6 6 8 8 9 10 11 12 12 12 12 12 13 13 13 13 12 11 13 15 16 19 20 21 22 20 19 20 21 21 21 21 21 21 20 21 20 20 20 20 20 20 20 20 21 22 22 23 23 23 22 21 20 21 22 19 21 25 21
4 1 3 2 6 6 2 2 2 1 2 4 5 3 2 3 5 6 5 6 8 7 7 7 5 5 5 5 6 6 5 5 4 6 6 5 6 7 6 6 6 7 7 8 9 11 11 11 11 12 13 13 13 13 13 13 15 17 19 20 21 21 21 20 19 20 20 20 21 21 21 21 21 21 21 20 20 20 21 21 21 22 23 24 24 25 25 24 24 24 24 24 24 23 24 26 24
5 2 2 5 5 2 2 4 1 1 2 4 6 3 2 3 6 5 4 4 6 7 7 8 6 5 6 6 6 6 6 6 6 6 6 6 6 6 6 6 6 7 7 7 8 9 10 10 11 11 12 13 12 12 12 13 14 15 17 19 21 20 19 19 18 18 19 19 20 21 20 21 21 21 21 21 21 22 22 22 23 24 25 25 26 26 26 25 25 25 26 26 26 27 26 26 27
7 1 3 2 2 3 3 4 1 2 5 2 6 4 3 3 5 5 4 3 5 6 5 5 5 5 5 6 6 6 5 5 7 9 8 8 7 7 6 6 6 7 7 6 6 7 9 10 10 12 12 11 10 10 11 12 12 13 14 16 17 17 16 15 16 17 17 18 19 19 19 20 20 20 20 20 21 21 22 22 23 24 25 25 26 26 26 26 26 25 25 25 25 26 26 26 27
6 4 4 4 4 3 3 2 2 4 3 3 5 2 2 2 5 3 2 2 4 4 5 5 5 5 5 5 6 5 5 4 6 9 9 9 8 7 7 7 7 7 7 7 6 6 7 8 9 10 11 9 9 8 9 10 10 11 12 13 14 13 13 13 14 15 15 16 18 18 18 18 18 19 19 19 20 20 21 21 22 23 23 24 24 24 25 25 25 25 24 24 24 24 24 24 24
5 4 3 3 3 3 4 4 4 5 3 4 4 2 1 1 4 3 4 6 5 4 4 6 6 5 5 5 6 5 5 5 5 6 9 10 10 9 9 9 8 7 7 7 6 5 5 5 6 7 8 8 7 7 7 8 8 9 10 10 11 11 10 11 13 14 13 14 16 17 17 17 17 17 17 17 18 18 19 19 20 21 21 22 22 22 23 23 23 23 23 23 23 23 22 22 22
6 5 4 4 3 4 4 4 3 2 4 3 1 4 1 3 5 5 6 7 5 4 5 6 6 5 5 5 6 5 5 5 5 5 8 10 11 12 12 11 10 9 8 7 6 5 4 3 3 4 5 5 5 5 5 6 6 7 7 8 8 8 8 9 11 12 12 13 14 14 15 15 16 16 16 16 16 15 16 17 17 18 19 19 19 19 20 19 20 20 21 22 22 21 20 21 21
6 4 3 4 3 5 4 4 3 2 5 4 1 2 1 3 4 5 6 7 6 5 5 5 5 5 6 6 5 5 5 5 5 5 7 10 13 14 14 13 12 11 9 8 7 5 4 4 3 2 1 2 3 3 4 4 5 5 5 5 6 5 6 7 8 9 10 11 11 11 12 12 13 14 14 14 14 13 14 15 15 16 17 17 17 17 17 17 17 17 18 19 19 19 18 18 19
4 1 3 4 3 3 2 2 1 3 6 6 4 1 1 4 4 4 5 6 5 5 5 5 4 4 5 5 5 5 6 6 5 5 8 13 15 15 15 14 13 13 11 10 9 7 6 6 5 4 3 2 1 1 2 2 3 4 4 4 4 4 4 5 7 8 8 9 9 9 10 10 10 11 12 12 11 11 12 13 13 14 14 14 15 15 15 15 15 15 16 16 17 16 15 16 16
2 1 4 2 2 3 1 2 4 2 3 5 4 1 4 4 3 4 6 6 5 5 5 6 6 5 5 5 5 5 5 6 5 4 8 14 17 16 16 16 15 14 13 12 12 10 8 7 7 7 6 5 5 4 3 3 3 3 3 3 3 4 4 4 5 7 7 7 7 7 8 8 8 9 10 10 9 9 9 10 10 11 12 12 13 13 13 14 13 14 14 14 14 14 13 14 14
2 2 2 1 2 5 2 2 2 3 2 4 3 3 6 3 1 4 7 7 7 7 6 6 6 7 6 5 6 5 6 6 6 5 9 14 16 16 16 17 16 16 15 15 14 13 11 9 8 8 8 8 8 7 6 5 5 4 4 4 4 4 4 4 4 6 7 7 7 6 7 7 7 7 8 8 8 8 8 8 9 9 9 10 10 11 11 11 11 12 12 12 13 12 12 12 12
2 2 1 1 2 4 3 1 3 5 2 4 3 4 6 3 1 5 8 8 7 7 6 6 7 6 6 6 6 6 6 6 6 7 10 13 14 15 17 17 17 17 17 17 17 15 14 12 11 10 10 10 10 9 9 8 7 7 6 6 5 5 5 5 5 5 6 7 7 7 6 6 6 6 6 6 6 6 7 7 7 8 8 8 8 8 9 9 9 10 10 10 10 10 10 10 10
3 2 2 2 3 2 2 1 1 3 3 5 5 5 5 2 3 4 6 4 5 6 5 6 7 6 6 6 7 7 6 6 6 6 8 11 11 12 15 16 18 18 18 19 18 17 16 15 14 13 12 11 10 11 11 10 10 9 9 8 8 7 7 7 7 7 7 7 7 7 7 6 6 6 6 6 6 6 6 6 5 6 6 5 5 5 6 6 6 7 7 7 7 7 7 7 7
3 2 2 2 3 1 1 0 1 1 1 3 4 4 4 4 5 3 5 6 6 5 5 6 6 6 6 7 7 7 6 6 5 5 7 10 10 10 11 13 15 16 18 19 19 19 19 18 17 16 15 13 12 13 13 13 13 12 11 11 10 10 9 9 9 9 9 9 8 9 8 8 7 7 7 7 7 6 6 6 5 5 4 4 4 4 4 3 3 3 3 3 3 4 4 4 4
3 3 3 3 2 1 1 1 1 2 1 1 3 5 6 5 4 4 7 6 6 5 4 5 6 6 7 8 7 6 6 6 6 5 8 11 11 11 11 11 12 13 15 17 18 20 20 20 20 19 18 17 16 16 16 15 14 14 14 14 13 12 12 12 12 12 12 12 11 11 10 9 10 9 9 8 8 7 7 6 6 6 5 5 5 4 4 3 3 2 1 1 1 1 1 1 1
2 1 2 2 1 2 2 2 3 1 2 3 1 4 8 6 3 5 6 5 6 5 4 6 6 7 8 8 7 7 6 6 6 6 9 11 11 12 13 13 13 13 14 15 15 17 19 21 22 21 21 20 19 19 18 18 16 16 16 16 15 15 14 14 15 15 15 15 15 14 12 12 13 12 11 11 10 9 9 9 9 9 8 8 7 7 6 6 6 5 5 5 5 5 4 4 5
Wind_Direction
321 309 305 307 323 327 354 69 65 3 67 80 19 18 354 341 320 344 9 360 360 349 344 10 20 52 81 98 104 84 55 53 45 343 139 342 336 332 350 356 356 358 344 202 187 196 187 177 174 167 164 160 147 150 171 179 179 177 173 168 163 156 155 152 150 147 143 142 143 141 139 139 135 134 130 128 123 121 128 135 142 143 140 136 130 121 117 112 104 101 93 90 87 84 80 76 76
345 326 313 302 340 360 317 74 88 15 56 72 17 44 324 325 354 3 8 12 350 307 313 22 45 56 83 110 105 88 54 53 42 352 190 347 347 350 353 356 353 354 341 223 192 196 193 184 176 171 164 161 155 150 160 179 183 182 179 169 161 159 157 155 153 150 147 147 149 148 146 145 139 139 134 133 130 128 131 135 139 142 144 141 131 121 121 114 107 104 95 93 90 88 84 80 79
5 354 351 328 346 36 46 45 79 75 72 95 19 11 336 351 355 339 342 17 340 320 330 22 50 22 19 64 32 65 43 36 34 6 326 351 355 345 348 355 352 350 338 245 192 194 193 190 180 172 170 163 160 161 155 167 177 182 183 172 162 161 162 159 158 155 153 153 154 155 154 151 146 144 140 138 136 138 139 139 140 139 142 139 130 124 124 116 109 105 98 98 93 91 88 87 84
13 14 15 48 51 32 50 46 76 104 77 136 107 3 359 356 334 327 331 1 358 5 7 7 51 4 27 46 13 65 16 335 15 11 330 344 344 335 347 358 354 351 342 228 186 192 192 193 186 179 176 170 162 163 160 158 158 166 173 176 174 168 167 165 162 160 159 159 162 164 159 155 154 150 145 144 141 147 149 144 142 139 140 138 129 127 127 120 112 110 108 105 96 94 92 93 90
25 41 32 46 88 41 77 66 47 82 62 237 92 359 351 339 327 336 330 341 19 25 16 5 55 30 54 46 2 68 334 302 345 1 337 334 342 345 356 1 359 2 356 212 185 190 195 194 188 187 178 176 171 166 165 162 151 144 144 156 173 180 174 164 162 166 165 163 167 171 167 165 166 162 155 148 144 152 159 149 144 142 141 136 130 131 131 126 121 121 118 110 102 98 95 98 96
33 62 47 55 84 62 74 71 61 76 34 341 81 340 331 340 332 336 338 347 31 29 24 17 62 87 66 46 42 98 20 341 324 347 340 339 350 356 3 2 5 14 12 335 198 193 197 200 193 191 182 181 178 171 169 170 165 152 146 146 159 181 175 160 164 173 172 167 168 170 173 177 178 177 166 154 152 160 168 158 151 147 141 136 134 137 136 136 135 133 123 113 108 102 101 104 103
26 45 40 59 54 45 77 83 84 80 16 17 63 350 334 346 334 351 6 1 15 17 17 12 11 113 78 97 77 102 61 30 332 343 343 346 355 1 7 6 10 17 18 14 232 200 199 206 201 194 187 184 179 174 172 173 171 166 166 165 164 174 173 169 175 180 181 174 170 169 169 179 183 182 170 161 162 169 176 167 160 151 143 140 141 146 146 147 147 140 125 113 110 105 104 106 108
43 49 37 74 54 41 87 88 73 81 22 15 21 0 349 349 344 17 24 16 23 8 3 350 342 70 64 85 115 133 44 15 356 356 354 359 2 4 9 8 11 12 17 24 19 215 208 210 205 198 192 185 182 178 177 175 173 174 175 179 180 183 187 185 185 187 190 182 178 177 170 175 179 178 172 166 167 175 181 172 164 157 150 149 150 154 154 154 151 139 122 110 107 105 105 105 107
46 47 58 76 78 67 79 79 59 57 23 6 3 2 354 350 1 28 32 33 29 360 5 341 343 46 1 46 75 173 16 2 360 2 3 6 2 3 9 9 10 8 13 27 23 20 194 206 212 205 197 189 192 188 185 182 181 186 185 188 190 192 197 196 195 195 197 191 185 184 180 177 172 173 172 171 173 176 180 175 169 166 160 156 157 159 158 159 152 138 123 111 109 109 108 109 106
32 34 91 77 77 79 59 51 46 44 7 342 349 359 355 347 9 32 36 41 20 351 357 332 8 40 346 32 53 111 360 356 1 2 4 6 2 2 6 9 10 5 11 24 19 28 134 198 218 206 201 207 216 208 201 192 185 193 196 199 200 200 201 201 203 201 199 197 192 187 186 183 173 172 172 174 179 179 180 179 175 171 166 162 163 164 164 165 154 144 137 124 118 118 115 114 112
34 6 85 76 57 70 67 66 50 50 343 326 342 353 4 347 352 35 36 47 23 17 1 350 28 21 359 19 210 12 357 358 4 359 358 3 4 3 4 6 9 5 4 16 18 23 61 112 182 196 198 209 225 224 225 211 192 196 204 206 210 211 208 205 206 206 203 201 200 192 190 189 183 181 178 180 182 184 184 182 179 175 172 168 168 168 171 172 162 152 152 136 121 130 123 111 115
69 358 68 73 52 73 102 106 45 325 308 348 355 343 358 2 8 24 30 39 7 21 21 4 344 328 21 345 262 352 356 1 1 354 354 1 5 5 6 5 7 6 358 2 10 18 33 67 126 180 194 197 208 221 240 222 195 196 208 218 223 216 209 207 207 209 207 204 205 199 197 194 192 191 186 187 186 188 189 185 182 181 179 172 170 173 176 177 168 157 156 147 132 149 147 103 109
94 71 85 81 50 105 104 103 349 318 335 345 335 327 345 23 22 347 11 39 10 17 25 354 309 311 54 291 301 353 355 357 355 354 354 358 4 5 7 7 6 7 360 357 1 9 21 43 73 66 204 196 196 208 230 213 196 201 213 226 227 215 204 205 209 212 208 205 206 203 202 200 199 195 191 194 192 194 198 195 188 190 185 172 173 178 180 176 168 163 160 160 153 173 185 108 103
101 101 92 102 51 91 94 77 330 60 20 314 307 331 0 35 356 328 18 43 22 8 336 351 336 307 27 323 329 357 348 350 353 355 356 359 3 4 7 9 8 7 3 1 1 0 6 18 27 24 29 211 199 204 210 206 205 208 214 222 219 215 207 206 213 213 208 205 203 203 206 208 207 201 198 200 200 201 203 202 195 200 190 171 177 179 179 178 172 177 174 171 166 194 216 119 97
96 116 79 101 43 38 75 80 137 93 100 324 342 339 20 43 351 12 23 39 38 351 310 4 6 15 9 345 326 335 342 349 353 354 358 1 3 4 6 8 8 7 3 1 1 357 358 3 6 8 13 18 218 215 207 206 209 210 216 218 212 216 216 216 219 216 213 209 201 201 205 212 213 207 205 204 205 205 207 205 197 200 190 173 179 177 177 182 175 183 190 186 176 197 200 122 109
79 104 71 85 47 47 80 26 46 68 293 315 340 350 37 2 354 49 21 28 106 354 5 19 15 65 355 314 309 330 347 354 354 354 360 4 3 4 5 6 6 6 6 2 359 357 357 357 357 358 3 8 330 218 207 208 209 211 217 219 216 217 221 224 224 218 216 213 204 200 204 212 212 210 209 207 207 208 211 208 199 199 191 179 179 175 177 179 172 179 190 192 181 180 151 131 118
49 74 68 76 68 77 118 62 111 62 300 310 335 7 44 339 339 72 52 38 57 346 29 38 27 78 260 273 329 346 358 1 359 360 3 5 4 2 2 4 3 2 5 5 1 358 357 356 354 353 358 1 351 231 208 214 214 214 215 221 224 220 223 227 226 222 215 212 211 206 206 214 211 212 213 210 209 209 214 217 208 201 189 181 179 174 177 173 170 173 175 178 164 153 143 135 121
47 75 72 92 100 86 148 176 206 101 331 310 327 10 50 6 335 347 31 17 2 347 39 34 21 32 352 322 347 359 5 7 8 9 7 6 4 1 358 358 359 359 0 3 3 1 359 358 355 350 353 357 348 323 226 221 219 217 213 219 224 224 226 226 226 225 215 209 212 213 212 219 216 214 217 217 213 204 211 217 205 196 185 180 178 173 178 171 169 171 165 156 143 140 138 140 134
61 102 78 111 170 167 160 171 270 54 288 298 335 18 56 11 328 4 24 351 360 10 349 355 346 323 360 353 1 9 9 11 13 14 10 6 3 360 354 352 354 354 354 357 0 3 2 359 358 350 348 354 351 332 320 270 214 211 211 216 219 227 230 227 226 221 215 208 209 214 214 221 216 214 221 221 210 195 197 197 188 188 185 178 175 176 180 176 174 170 159 147 142 148 148 153 158
58 96 80 134 183 147 145 118 51 325 260 343 341 4 59 10 335 22 43 354 6 9 321 335 342 327 343 357 11 16 13 13 13 14 11 5 1 358 353 350 350 350 349 349 354 3 4 360 1 355 347 351 350 338 328 334 205 195 205 214 215 224 231 228 222 214 214 207 202 209 214 217 211 210 217 209 199 191 192 189 185 189 187 176 176 182 187 188 181 170 162 154 152 162 167 176 185
53 71 113 169 165 100 335 3 53 10 47 58 332 1 45 20 21 42 81 46 351 312 274 287 304 310 325 352 10 21 19 14 11 12 10 3 359 355 353 350 347 347 347 347 349 359 4 3 2 359 353 352 350 344 336 331 333 182 193 209 216 221 226 224 217 211 210 200 194 203 209 207 202 204 202 192 197 196 191 189 190 192 187 181 182 184 195 199 183 174 171 167 168 175 186 194 196
70 45 111 150 138 103 250 268 58 49 55 49 6 5 354 74 38 48 97 93 298 273 264 266 275 296 323 1 11 20 21 15 12 10 7 2 358 354 352 349 346 347 349 349 348 354 2 4 5 2 357 354 353 350 342 334 341 211 187 206 221 223 224 220 211 206 198 191 193 199 202 198 196 198 194 189 197 200 193 190 193 195 192 189 189 190 198 201 188 181 179 176 181 187 198 212 217
87 54 61 133 139 127 198 213 104 109 67 33 345 320 324 68 37 182 118 147 238 257 266 282 299 336 34 34 25 22 21 17 13 9 5 0 357 355 352 349 346 346 349 350 349 353 0 3 6 4 359 355 353 356 349 337 345 349 195 205 219 223 224 218 205 202 195 192 199 203 203 199 194 193 192 191 195 200 198 194 196 200 198 196 197 199 203 205 196 190 190 187 187 193 210 225 229
82 94 6 134 134 138 177 178 135 124 96 321 245 68 41 90 48 166 149 228 249 278 302 329 26 70 58 43 30 25 23 18 14 9 6 2 359 358 356 353 348 345 348 351 350 353 359 3 6 5 2 355 350 356 359 348 353 354 216 204 207 213 216 209 201 201 201 199 198 202 205 198 189 185 188 191 196 206 210 204 203 204 205 205 203 204 207 209 205 198 199 199 193 195 205 204 197
64 116 194 134 130 226 204 200 158 159 153 12 63 79 231 215 163 134 222 249 259 286 339 24 68 64 51 49 32 23 22 17 12 7 4 3 1 1 3 359 352 349 349 350 350 351 358 3 6 7 4 354 351 2 8 7 15 23 109 157 178 195 194 194 193 190 194 196 191 189 192 190 180 174 174 172 177 193 204 204 208 210 212 215 212 212 207 205 209 205 207 209 199 194 196 193 195
57 123 140 129 174 283 272 286 262 230 207 72 50 331 258 236 178 227 233 241 263 309 12 32 63 52 42 55 35 27 26 16 10 6 2 0 0 2 4 3 357 351 349 350 350 351 356 3 6 8 5 354 354 11 20 27 42 67 90 109 139 162 167 174 180 177 180 189 191 185 184 179 163 159 159 153 149 141 130 143 194 204 206 227 232 229 197 195 213 218 217 216 205 199 201 205 211
139 112 103 100 79 17 58 1 313 285 233 99 28 298 277 256 6 279 251 243 269 358 17 18 57 52 34 47 35 33 30 18 10 6 4 0 359 359 0 2 358 351 351 352 352 351 356 4 6 6 6 360 0 14 30 47 69 98 99 100 124 139 145 155 162 164 165 167 174 171 166 156 143 142 141 142 143 137 132 121 115 147 168 219 225 195 181 191 214 228 224 219 210 207 210 215 218
114 99 81 37 25 16 22 19 350 342 254 320 37 313 324 6 356 238 240 243 250 41 19 24 50 40 24 37 33 34 27 18 14 11 8 1 357 355 358 3 359 354 353 353 352 354 360 5 8 7 5 4 10 19 37 60 74 100 107 104 120 134 140 149 146 144 144 139 146 147 143 141 139 141 137 135 140 144 146 134 123 142 163 196 205 199 200 196 198 212 215 215 214 215 216 217 214
108 90 92 328 4 15 352 360 340 356 345 329 42 45 348 323 251 246 241 214 84 60 43 32 33 14 10 22 29 30 21 15 14 12 9 5 3 0 2 6 2 357 354 354 356 359 3 7 9 10 10 11 17 25 40 63 76 89 102 104 116 132 140 145 140 133 131 129 138 138 131 134 136 138 142 143 145 148 156 153 144 146 156 172 191 202 203 202 205 202 196 200 208 211 210 210 207
187 44 90 332 9 1 324 352 343 8 1 337 40 51 307 269 262 269 258 143 92 43 35 17 6 355 357 15 27 20 13 15 13 11 11 9 9 8 7 10 7 360 354 357 2 4 5 9 11 12 16 22 24 31 47 63 77 82 86 94 105 122 132 135 136 133 126 124 132 132 125 126 126 125 150 182 176 153 149 148 150 161 161 167 192 204 206 210 211 207 199 196 199 200 198 201 204
327 349 45 27 26 323 308 334 10 18 333 360 59 161 272 282 285 283 255 156 126 61 12 345 342 348 354 16 24 6 3 12 16 18 18 16 15 12 10 11 11 4 356 357 3 8 10 12 15 14 19 30 30 30 48 64 76 82 81 82 89 105 119 122 126 130 122 115 117 117 115 116 119 114 126 155 166 151 144 144 149 161 168 191 208 199 195 203 200 196 195 190 190 189 189 196 203
23 20 348 349 28 317 309 304 47 19 303 360 59 202 276 283 281 290 251 149 118 124 235 288 326 348 1 11 11 358 352 5 16 21 24 25 22 18 13 12 11 9 4 356 360 10 15 16 17 17 21 31 32 28 39 62 76 82 83 82 82 92 107 109 110 118 114 106 104 101 98 99 104 110 114 122 131 132 130 131 138 145 158 192 212 197 174 189 189 185 185 180 180 180 184 196 212
6 49 311 307 3 336 321 329 43 17 316 339 30 215 284 283 288 316 284 145 114 141 216 274 315 343 5 5 353 353 349 358 6 12 24 29 26 22 19 17 12 14 16 2 358 7 14 19 21 19 20 25 34 35 37 54 72 80 83 85 85 88 93 93 94 101 101 95 93 91 90 90 93 98 99 104 113 113 109 112 119 126 138 166 194 209 205 183 169 170 170 160 160 172 184 202 255
339 23 346 284 332 331 332 329 355 11 355 329 2 119 263 280 291 310 280 157 126 158 211 257 287 347 0 348 335 340 345 341 351 5 22 28 27 25 24 25 19 18 24 13 1 2 11 18 20 23 22 20 30 42 42 47 63 74 79 82 85 89 90 89 89 92 90 87 86 85 89 94 98 98 89 88 94 93 98 102 105 120 130 139 157 165 160 148 142 147 145 111 74 299 270 293 326
285 330 344 317 317 310 318 319 343 1 354 335 4 344 296 302 302 305 272 164 142 183 213 244 287 352 344 333 326 320 327 318 342 4 19 25 25 24 24 28 24 20 26 23 11 5 9 14 18 28 30 22 21 35 45 44 56 70 75 78 81 84 88 91 93 93 89 86 83 84 89 94 96 97 91 90 93 93 98 100 102 110 117 128 132 132 133 125 117 132 142 78 15 352 335 328 353
227 258 265 300 315 295 287 299 340 355 349 1 14 332 307 313 315 322 301 145 116 151 227 296 334 348 328 332 322 302 306 312 356 16 22 24 21 17 19 26 27 25 27 27 23 16 12 14 24 31 32 30 25 28 39 39 46 63 71 74 73 72 77 83 86 89 88 84 83 85 87 88 92 95 95 95 95 99 100 96 98 97 98 112 119 118 116 108 102 100 97 90 68 35 14 4 92
207 200 224 291 311 304 298 288 345 9 358 318 344 324 310 311 311 317 311 118 93 117 148 345 350 347 324 311 299 295 296 315 15 30 30 25 19 15 16 21 25 29 29 26 28 25 18 22 32 33 31 37 36 31 39 39 39 51 59 66 67 66 70 76 78 81 83 82 82 85 86 87 91 93 93 94 96 100 102 101 101 99 100 103 104 105 106 107 104 99 99 96 89 77 60 78 122
171 166 285 326 316 300 306 279 330 16 21 281 329 335 321 321 318 321 23 126 158 197 188 283 292 329 309 268 276 290 300 327 6 21 28 24 19 19 19 21 23 25 29 28 29 29 27 30 35 35 34 38 37 37 48 53 51 52 55 62 66 66 69 73 75 78 82 83 84 86 87 88 91 91 92 94 97 98 101 102 101 99 99 100 102 103 105 107 106 105 103 94 86 80 71 84 123
88 46 37 338 308 296 304 299 342 358 58 282 321 330 315 310 317 340 46 118 252 245 215 210 197 314 291 266 273 294 318 332 344 356 14 20 22 24 24 27 25 24 27 29 32 34 37 38 37 39 39 38 35 40 56 64 67 70 70 69 69 69 67 69 72 74 78 81 81 84 87 90 92 94 96 99 99 99 98 99 100 100 99 100 102 101 102 101 98 99 98 92 86 80 73 77 101
50 38 61 328 323 342 313 325 343 339 127 264 306 308 301 315 338 350 4 1 320 328 317 261 212 244 256 265 276 286 305 315 319 325 339 4 27 30 28 31 31 29 28 28 29 33 38 41 43 44 44 43 45 50 60 69 77 81 82 80 78 77 73 71 71 70 73 75 75 77 80 86 90 94 97 99 100 100 100 99 99 100 98 98 99 98 96 93 91 90 89 90 86 79 71 66 70
341 229 92 324 314 310 258 290 328 331 342 331 340 356 315 336 354 325 320 346 334 344 340 311 298 293 283 291 289 277 279 288 293 305 319 346 26 31 30 31 33 38 37 34 31 31 36 41 46 50 51 51 55 66 71 76 86 88 89 87 84 81 75 69 67 64 67 70 71 73 76 81 85 88 90 91 94 95 97 97 96 96 94 93 94 92 91 90 90 88 87 89 85 81 75 67 64
334 268 195 240 267 243 275 308 328 8 19 351 25 40 307 325 343 306 312 337 318 326 327 293 288 310 310 291 284 287 286 277 271 284 309 333 0 18 26 27 32 42 47 47 44 40 40 44 51 54 57 58 56 63 75 84 89 89 89 85 79 75 69 64 65 66 69 73 75 78 80 83 85 87 88 89 90 92 93 94 95 95 92 90 91 90 90 89 88 86 87 89 87 86 86 76 66
345 297 164 157 284 292 321 334 352 56 345 321 43 84 271 319 327 295 310 324 311 322 322 294 284 293 291 272 273 287 287 279 278 284 297 315 334 353 8 18 30 40 49 54 54 51 50 51 56 59 61 62 58 60 69 78 83 83 83 81 79 79 77 75 78 80 80 82 84 83 83 84 86 88 90 91 92 93 94 94 94 94 94 93 93 91 90 88 88 87 88 90 89 89 89 82 73
313 259 84 350 309 305 324 46 48 89 263 328 16 86 181 298 290 281 315 330 321 335 333 318 307 280 273 271 269 272 268 258 260 274 280 289 311 333 346 3 20 29 41 51 51 52 53 54 60 65 65 65 62 61 64 71 78 82 84 84 84 84 86 87 88 88 88 88 88 86 85 86 87 89 91 92 93 94 95 95 95 95 95 95 93 92 91 91 92 91 91 91 90 88 88 86 81
267 225 49 301 293 292 124 95 48 302 49 358 326 13 76 274 278 300 346 357 328 331 327 318 319 294 275 275 272 269 265 252 240 248 259 269 290 312 328 345 1 10 22 37 49 53 53 56 60 64 66 66 65 64 66 70 76 82 87 88 89 90 91 93 94 92 92 91 89 88 88 88 88 89 91 92 93 94 95 95 95 95 94 93 92 91 91 91 91 89 88 88 88 86 86 86 83
278 286 59 345 24 65 85 90 79 26 50 342 289 348 41 283 289 324 5 17 321 317 313 296 299 294 275 271 275 269 264 260 250 248 252 265 285 301 312 325 337 353 7 15 34 47 48 51 54 60 66 68 70 71 73 78 81 85 88 90 93 96 97 98 97 93 91 91 90 89 88 88 88 89 89 90 91 92 93 93 92 91 90 90 90 89 88 87 86 86 87 86 85 84 83 83 82
309 10 53 41 35 37 55 57 71 60 21 282 262 310 45 302 289 287 328 313 276 288 311 304 303 302 282 268 271 263 251 252 253 253 253 261 276 285 291 301 313 333 352 359 6 22 37 43 45 56 69 74 78 80 81 85 87 87 90 91 94 97 100 101 98 95 94 93 92 92 92 91 90 90 89 89 88 89 89 89 89 89 88 88 88 87 87 86 86 86 86 85 84 84 84 84 83
347 7 16 34 10 8 25 357 31 60 334 273 249 293 61 243 283 284 292 288 266 253 286 299 296 289 279 268 263 255 247 248 253 256 256 257 262 265 270 280 292 307 326 343 352 353 10 31 35 50 68 78 84 88 89 91 92 92 95 97 98 100 102 102 100 99 98 96 97 99 99 97 96 95 93 91 89 89 89 90 90 89 87 86 85 85 85 86 86 86 84 84 84 84 85 84 83
7 3 16 51 17 8 22 344 3 38 283 256 264 350 350 226 260 276 284 288 283 267 267 277 276 272 277 273 265 261 257 256 253 252 255 255 253 253 257 266 275 286 298 315 330 329 334 355 10 30 56 74 86 95 99 101 100 100 100 101 104 105 105 102 103 104 103 101 102 104 103 101 99 98 96 94 93 93 93 92 91 89 86 85 84 83 82 82 82 81 81 81 80 81 80 80 81
351 344 22 64 52 27 7 322 336 318 282 275 319 357 300 288 278 249 266 279 272 275 279 278 274 272 276 273 272 277 272 263 251 243 251 251 249 251 254 257 262 269 278 287 297 303 301 296 298 322 14 59 83 100 112 117 114 112 111 109 111 112 110 107 107 110 111 111 110 108 107 105 103 101 99 98 98 97 95 92 91 90 89 88 86 84 83 81 79 79 79 78 77 78 77 77 79
310 277 76 76 95 77 6 286 270 291 297 303 322 3 228 301 279 240 279 292 280 285 296 307 305 288 285 286 287 286 278 271 258 245 249 251 251 254 254 254 256 260 264 270 275 278 277 274 269 264 260 257 244 178 148 148 139 136 138 132 130 131 125 119 118 119 121 122 121 117 115 113 111 109 106 105 103 100 98 96 95 95 94 92 90 88 85 83 81 79 78 79 78 77 76 77 78
291 126 72 55 151 135 119 223 212 239 318 299 307 278 242 267 263 281 322 337 342 332 329 345 330 309 321 316 296 286 280 279 271 257 253 254 256 255 254 255 256 256 257 260 263 265 265 261 258 257 251 245 245 242 224 209 190 177 173 165 162 160 157 150 138 135 137 136 133 129 127 125 122 120 118 116 113 109 105 104 102 100 98 96 93 91 89 85 83 82 81 81 82 80 80 81 82
334 44 57 275 174 129 106 302 291 54 40 278 298 303 290 321 337 317 353 10 1 345 339 337 309 307 331 316 296 295 289 287 283 269 262 262 262 259 256 256 257 257 256 257 260 260 260 256 252 251 247 242 240 240 240 234 223 216 212 202 196 188 187 185 169 159 157 155 153 149 145 142 138 136 134 132 129 124 119 115 111 107 104 101 98 95 93 90 86 85 83 83 84 84 84 84 84
41 47 178 207 70 86 93 9 345 25 11 280 319 306 298 345 332 320 1 8 346 335 329 322 314 328 337 311 298 292 283 288 292 286 279 277 274 269 265 261 260 261 261 262 264 262 259 255 251 248 245 243 241 241 243 241 237 235 231 227 222 216 212 206 198 189 179 175 175 173 170 165 161 159 157 154 152 146 141 134 127 122 116 109 106 101 97 94 90 88 86 85 85 84 84 84 82
70 112 167 101 63 18 16 58 8 4 321 293 307 287 277 246 232 314 344 317 295 307 321 330 327 330 319 301 297 292 290 298 302 304 300 297 297 291 284 276 270 268 266 267 267 262 258 256 252 249 247 246 245 244 244 241 241 240 238 239 235 229 226 219 215 211 204 202 199 196 196 194 190 186 184 182 179 175 171 165 156 149 141 134 127 119 112 107 101 96 93 90 88 84 83 82 78
24 43 359 36 116 150 332 26 144 133 289 304 314 302 282 236 212 260 279 247 237 270 320 334 317 312 307 296 294 290 291 298 298 301 302 308 318 318 312 303 292 284 276 272 269 263 260 258 255 253 251 246 242 241 242 242 243 241 240 240 237 234 232 227 226 225 223 224 222 219 219 218 215 211 209 208 203 200 199 195 192 187 180 175 170 160 151 138 126 117 106 99 94 87 83 82 75
3 24 22 18 25 48 23 321 142 132 167 280 320 304 282 257 220 226 247 237 216 232 321 330 298 307 313 302 297 288 284 292 291 287 295 308 321 327 329 326 318 309 296 285 276 268 263 259 256 256 254 251 245 242 243 244 243 243 243 241 240 240 237 232 232 232 233 235 234 233 233 231 230 229 227 227 224 219 219 217 218 221 221 222 219 214 210 209 214 222 232 258 288 325 336 333 335
163 140 119 114 46 59 64 326 315 70 163 178 199 284 277 270 236 215 226 229 224 234 320 327 300 305 310 304 299 286 278 284 281 283 297 309 321 328 329 326 323 320 313 304 293 280 270 263 259 258 256 255 253 251 249 247 245 244 246 246 245 245 242 238 237 237 239 240 240 241 240 236 237 237 237 238 237 235 234 235 236 237 236 238 240 240 239 241 248 256 263 270 276 277 279 282 285